Location: Altmatt
(47.1333°N, 8.7000°E)
Time: 18:40:12
(UTC+00:00)

Meteor 1-26 Rocket - Pass Details

Date: 13 July 2020
Orbit: 811 x 924 km, 81.3° (Epoch: 12 August)

Event Time Altitude Azimuth Distance (km) Brightness Sun altitude
Rises 22:29:14 0° 346° (NNW) 3,565 9.1 -19.8°
Reaches altitude 10° 22:31:46 10° 344° (NNW) 2,609 8.0 -19.9°
Maximum altitude 22:37:39 66° 264° (W) 974 4.5 -20.2°
Enters shadow 22:40:08 35° 193° (SSW) 1,402 4.9 -20.3°
